Location: Wonder Lake State Park
(41.4960°N, 73.6562°W)
Time: 16:42:47
(UTC-04:00)

Daily predictions for brighter satellites

Satellite Brightness Start Highest point End
(mag) Time Altitude Azimuth Time Altitude Azimuth Time Altitude Azimuth
Cosmos 304 Rocket 4.0 20:40:23 10° S 20:45:01 49° ESE 20:49:39 10° NNE
ISS -3.9 20:43:19 10° SW 20:46:34 65° SE 20:49:48 10° ENE
Abrixas rocket 2.8 20:53:22 10° SSW 20:56:19 34° SE 20:59:17 10° ENE
Cosmos 2084 4.5 20:55:34 10° S 20:59:05 24° ESE 21:02:28 10° ENE
Cosmos 1300 Rocket 4.1 20:57:43 10° NNW 21:02:03 61° W 21:06:19 10° S
BREEZE-M R/B 2.6 20:57:37 10° SW 21:02:37 86° SSE 21:05:28 10° ENE
Spot 2 Rocket 3.5 20:58:18 10° SSE 21:03:21 83° ENE 21:08:25 10° NNW
Timation 2 Rocket 4.1 20:58:10 10° S 21:03:48 46° ESE 21:09:32 10° NE
Cosmos 2082 Rocket 4.0 21:00:54 10° SW 21:06:04 36° WNW 21:11:18 10° N
GPS 2-04 Rocket1 4.2 21:03:56 10° WSW 21:07:26 26° SSW 21:10:34 12° SE
NOAA 11 4.2 21:02:30 10° SSE 21:07:59 89° ENE 21:13:28 10° NNW
USA 238 DEB 4.1 21:01:20 10° SW 21:08:09 70° NW 21:15:08 10° NNE
USA 238 4.1 21:01:27 10° SW 21:08:16 71° NW 21:15:14 10° NNE
Cosmos 2322 Rocket 2.9 21:03:08 10° N 21:08:26 40° ENE 21:13:09 13° SE
Cosmos 468 Rocket 4.2 21:03:29 10° S 21:08:34 50° ESE 21:13:38 10° NNE
Cosmos 1937 Rocket 4.4 21:04:18 10° N 21:08:59 34° ENE 21:13:06 13° SE
Tiangong 2 1.3 21:07:38 10° SW 21:10:41 49° SSE 21:13:44 10° E
SL-16 R/B 2.6 21:10:54 10° NNW 21:16:26 49° ENE 21:21:03 14° SE
ARGOS 3.5 21:11:32 11° SE 21:16:31 51° ENE 21:21:45 10° N
Cosmos 1763 Rocket 4.0 21:13:22 10° S 21:18:15 38° ESE 21:23:08 10° NE
USA 186 4.3 21:16:24 10° SW 21:18:52 21° W 21:21:28 10° NW
Cosmos 841 Rocket 4.4 21:17:39 10° SSE 21:22:01 29° E 21:26:29 10° NE
ELECTRON R/B 4.4 21:21:07 10° N 21:23:31 58° E 21:24:54 21° SSE
Atlas Centaur 2 3.0 21:22:54 10° SW 21:24:54 14° S 21:25:52 13° S
Cosmos 1570 Rocket 4.2 21:19:44 10° SSW 21:25:04 80° WNW 21:30:28 10° NNE
ATLAS CENTAUR R/B 2.9 21:22:10 10° NW 21:26:22 36° WSW 21:30:44 10° S
Helios 1B rocket 4.3 21:24:18 10° ENE 21:26:27 14° E 21:27:01 13° E
Cosmos 1975 2.9 21:24:30 10° N 21:28:34 80° W 21:32:28 11° S
BREEZE M DEB (TANK) 3.5 21:19:46 10° WNW 21:31:42 74° NNE 21:34:41 17° ESE
Tsikada Rocket 4.4 21:26:02 10° NNW 21:32:23 67° W 21:38:43 10° S
USA 245 4.2 21:32:07 20° ESE 21:33:49 32° ENE 21:37:28 10° N
USA 234 3.5 21:32:07 10° NE 21:38:40 74° NW 21:45:12 10° WSW
NOSS 3-2 (A) 3.9 21:34:52 10° SW 21:40:43 67° NW 21:47:16 10° NNE
SPOT 1/Viking Rocket 4.5 21:38:28 18° ESE 21:41:30 34° ENE 21:46:06 10° N
Meteor 1-19 Rocket 4.3 21:35:53 10° S 21:41:47 83° E 21:47:44 10° NNE
Meteor 1-12 Rocket 4.5 21:36:24 10° NNW 21:42:22 79° W 21:48:06 11° S
Shenzhou-11 Module 2.2 21:41:10 10° W 21:44:09 67° N 21:45:53 22° E
H-2A R/B 1.9 21:41:38 19° SSE 21:45:13 72° ENE 21:50:14 10° N
NOSS 3-2 (C) 3.5 21:39:27 10° SW 21:45:21 84° NW 21:51:56 10° NE
MetOp-B 4.1 21:45:40 18° SSE 21:49:47 85° ENE 21:55:10 10° NNW
Cosmos 1898 Rocket 3.7 21:44:43 10° NNW 21:50:01 75° WSW 21:53:56 18° S
Cosmos 1455 Rocket 3.2 21:46:31 10° N 21:50:49 55° E 21:53:02 26° SSE
ERS-1 Rocket 3.0 21:47:52 22° SSE 21:51:09 67° ENE 21:56:09 10° N
CZ-4C R/B 4.3 21:46:01 10° NNW 21:51:48 27° NE 21:58:09 10° E
SPOT 5 3.3 21:51:45 25° ESE 21:53:47 41° ENE 21:58:02 10° N
Cosmos 1356 4.0 21:53:13 33° SE 21:53:57 37° E 21:57:13 10° NNE
DMSP B5D2-2 4.4 21:49:04 10° NNE 21:54:11 48° E 21:57:22 22° SSE
Cosmos 1814 Rocket 3.9 21:50:43 10° SSW 21:55:57 79° ESE 22:01:17 10° NNE
SL-08 RB Rocket 3.7 21:55:16 22° S 21:58:13 84° WSW 22:02:48 10° NNW
CSL-04 DEB 4.5 21:57:04 24° S 21:59:34 82° WSW 22:03:43 10° NNW
Cosmos 2360 Rocket 2.7 21:54:13 10° NNW 21:59:38 46° ENE 22:02:36 25° ESE
Cosmos 1975 Rocket 3.8 21:56:24 10° SSW 22:00:37 52° W 22:04:52 10° N
Cosmos 1980 Rocket 4.1 21:57:33 10° NW 22:01:55 23° W 22:06:17 10° SSW
Cosmos 1242 Rocket 3.7 21:59:56 10° NNW 22:03:23 40° W 22:05:47 17° SSW
ATLAS CENTAUR R/B 4.5 21:57:39 10° SW 22:04:29 82° NW 22:26:28 10° NE
Cosmos 2219 Rocket 4.2 22:01:00 10° N 22:04:34 17° NE 22:07:53 11° E
Meteor 2-20 4.5 21:59:56 10° N 22:06:06 84° W 22:10:32 20° S
Meteor 1-29 4.4 22:03:19 10° NE 22:05:42 23° E 22:05:42 23° E
Cosmos 1666 4.4 22:04:17 10° NNW 22:07:41 30° W 22:10:56 11° SSW
Terra 2.9 22:07:33 24° ESE 22:09:14 31° ENE 22:13:25 10° N
Meteor 2-20 Rocket 4.4 22:03:39 10° N 22:09:49 80° E 22:13:35 25° SSE
Meteor 1-23 Rocket 4.3 22:06:43 25° SSE 22:09:55 58° E 22:15:22 10° NNE
Meteor 2-9 Rocket 4.2 22:04:35 10° NNW 22:09:56 78° W 22:13:23 23° S
CZ-2C R/B 4.2 22:06:20 10° NE 22:10:07 18° E 22:10:37 18° E
CENTAUR R/B 2.4 22:06:29 10° SSW 22:12:20 71° ESE 22:19:05 10° NE
Cosmos 990 Rocket 4.2 22:07:22 10° NNW 22:12:32 64° WSW 22:15:33 25° S
Lacrosse 5 rocket 2.6 22:11:41 10° NNW 22:15:38 33° NE 22:17:34 22° E
Cosmos 1544 Rocket 3.7 22:13:27 10° NNW 22:17:53 72° W 22:20:00 30° S
Cosmos 2333 Rocket 4.1 22:14:29 10° N 22:18:33 19° NE 22:21:38 13° E
Cosmos 2150 Rocket 4.1 22:16:24 10° NNW 22:21:49 77° WSW 22:24:19 32° S
COSMOS 2428 3.9 22:17:08 10° N 22:22:07 30° NE 22:24:38 22° E
ISS -1.2 22:20:35 10° WNW 22:23:17 23° NNW 22:25:59 10° NE
Helios 1A 2.9 22:22:56 41° S 22:24:19 85° WSW 22:28:30 10° NNW
Meteor 2-4 Rocket 4.2 22:22:15 10° SSW 22:27:34 58° WNW 22:33:03 10° N
Cosmos 1833 4.1 22:25:17 13° SSW 22:30:30 87° ESE 22:36:14 10° NNE
Abrixas rocket 3.4 22:29:37 10° W 22:32:42 41° NNW 22:35:48 10° NE
Nadezhda 4 Rocket 4.1 22:26:36 10° N 22:32:52 65° E 22:35:31 36° SSE
Cosmos 1536 Rocket 3.6 22:31:59 34° SSW 22:33:52 78° W 22:38:21 10° N
SJ 16-02 1.5 22:29:49 10° N 22:34:13 58° ENE 22:35:06 48° ESE
Aureole 2 Rocket 2.7 22:32:14 10° NNW 22:34:51 47° W 22:34:51 47° W
Spot 1 3.9 22:36:58 56° SE 22:37:40 70° ENE 22:41:44 10° N
Cosmos 1340 Rocket 4.0 22:38:31 19° SW 22:41:03 40° WNW 22:44:56 10° N
Cosmos 2297 Rocket 4.4 22:48:24 10° E 22:48:24 10° E 22:48:36 10° E
Tiangong 2 1.9 22:44:14 10° W 22:46:40 47° WNW 22:46:40 47° WNW
Cosmos 2322 3.7 22:41:46 10° NNW 22:47:32 81° ENE 22:49:20 46° SE
Okean 2 3.3 22:48:13 68° S 22:48:44 86° E 22:52:56 10° N
Cosmos 2227 Rocket 4.2 22:51:15 13° E 22:51:15 13° E 22:52:45 10° ENE
CZ-2C R/B 3.3 22:50:39 46° SE 22:52:03 62° ENE 22:57:33 10° N
Cosmos 2322 Rocket 3.6 22:47:31 10° NW 22:52:16 29° WSW 22:54:59 19° SW
Cosmos 2237 Rocket 4.0 22:51:40 10° N 22:55:57 21° NE 22:58:28 16° E
Cosmos 540 Rocket 3.7 22:54:43 26° SW 22:57:38 67° WNW 23:02:48 10° NNE
Cosmos 1066 Rocket 4.0 22:57:24 53° SSE 22:58:33 68° E 23:03:56 10° NNE
Cosmos 1356 Rocket 3.3 22:59:33 78° S 22:59:50 87° E 23:04:10 10° N
SL-16 R/B 3.9 22:55:45 10° NW 23:00:08 24° W 23:02:56 16° SW
Cosmos 2026 Rocket 4.5 22:54:14 10° N 23:00:09 44° ENE 23:01:36 38° ESE
Cosmos 2034 Rocket 4.3 22:56:40 23° SSW 23:00:30 60° W 23:06:36 10° N
Helios 1B rocket 3.2 22:57:59 10° N 23:01:59 48° WNW 23:03:22 34° WSW
CARTOSAT-1 3.8 23:05:34 55° SW 23:06:04 59° W 23:10:21 10° NNW
Meteor 1-22 Rocket 4.5 23:01:05 10° N 23:06:16 47° ENE 23:07:02 44° E
IGS 5A 3.8 23:07:25 52° WSW 23:07:46 54° W 23:11:52 10° NNW
Cosmos 1766 4.3 23:10:00 10° N 23:13:09 37° NE 23:13:09 37° NE
Cosmos 2237 4.4 23:09:52 10° NNW 23:15:32 62° WSW 23:16:47 50° SSW
Cosmos 2219 3.2 23:16:52 57° SE 23:17:25 60° ESE 23:23:04 10° NNE
Cosmos 372 Rocket 4.1 23:14:22 10° NNW 23:19:25 59° WSW 23:20:07 53° SW
YAOGAN 11 4.3 23:21:44 58° WSW 23:21:59 59° W 23:26:27 10° NNW
Cosmos 1627 Rocket 4.4 23:16:26 10° N 23:22:37 74° E 23:23:55 56° SSE
H-2A R/B 4.4 23:23:13 10° WSW 23:25:13 12° W 23:27:14 10° WNW
Cosmos 1606 Rocket 3.6 23:21:07 10° N 23:25:21 73° NE 23:25:21 73° NE
Cosmos 1025 Rocket 3.8 23:25:46 41° WSW 23:26:27 45° WNW 23:30:39 10° N
Cosmos 2195 Rocket 4.4 23:21:24 10° N 23:27:33 85° E 23:28:52 58° SSE
Cosmos 1634 Rocket 3.9 23:27:48 51° S 23:29:33 87° W 23:35:56 10° N
Cosmos 2333 4.3 23:35:23 10° NNW 23:40:58 63° WSW 23:41:35 58° SW
CZ-4C R/B 2.9 23:33:57 10° NW 23:41:15 90° N 23:43:41 50° SSE
Cosmos 2360 Rocket 3.6 23:38:47 10° NW 23:43:19 25° WSW 23:44:22 24° WSW
SL-19 R/B 4.5 23:37:55 10° NNE 23:44:02 59° ESE 23:44:29 57° ESE
Cosmos 1125 Rocket 4.3 23:40:23 10° NW 23:45:12 38° WSW 23:45:40 37° WSW
Terra 3.2 23:46:26 27° WSW 23:46:57 28° W 23:51:02 10° NW
Cosmos 2219 Rocket 2.0 23:43:36 10° NNW 23:49:13 81° WSW 23:49:36 76° SSW
CZ-2C R/B 3.0 23:45:14 10° N 23:50:48 62° WNW 23:52:08 48° SW
Cosmos 1842 4.3 23:52:07 44° NNE 23:52:07 44° NNE 23:54:53 10° N
ADEOS Rocket 3.7 23:47:34 10° NNE 23:52:05 32° E 23:52:05 32° E
Cosmos 1805 4.2 23:49:07 10° N 23:52:00 47° N 23:52:00 47° N
H-2A R/B 3.4 23:53:44 30° ENE 23:53:44 30° ENE 23:57:11 10° N
Lacrosse 5 rocket 3.1 23:51:00 10° WNW 23:53:13 25° W 23:53:13 25° W
